Eagle River, WI

5:36 PM CST on February 05, 2016 (GMT -0600)
Eagle River Union

Weather History for KEGV - December, 2013

Change the Weather History Date:

Saturday, December 7, 2013

  Actual Average Record
Temperature  
Mean Temperature -7 °F -  
Max Temperature 1 °F 27 °F 36 °F (1992)
Min Temperature -15 °F 8 °F -15 °F (2013)
Degree Days  
Heating Degree Days 72    
Moisture  
Dew Point -13 °F    
Average Humidity 74    
Maximum Humidity 79    
Minimum Humidity 65    
Precipitation  
Precipitation 0.00 in - - ()
Sea Level Pressure  
Sea Level Pressure 30.44 in    
Wind  
Wind Speed 6 mph (WSW)    
Max Wind Speed 12 mph    
Max Gust Speed -    
Visibility 10 miles    
Events      
Averages and records for this station are not official NWS values.
T = Trace of Precipitation, MM = Missing Value Source: NWS Daily Summary

Daily Weather History Graph

Daily Weather History Graph

Search for Another Location

Airport or City:

Trip Planner

Search our weather history database for the weather conditions in past years. The results will help you decide how hot, cold, wet, or windy it might be!

Date:

Astronomy

Dec. 07, 2013 Rise Set
Actual Time 7:25 AM CST 4:12 PM CST
Civil Twilight 6:50 AM CST 4:46 PM CST
Nautical Twilight 6:13 AM CST 5:24 PM CST
Astronomical Twilight 5:37 AM CST 6:00 PM CST
Moon 10:58 AM CST (12/7) 10:06 PM CST (12/7)
Length of Visible Light 9h 55m
Length of Day
8h 47m
Waxing Crescent, 29% of the Moon is Illuminated
Dec 7
Waxing Crescent
Dec 9
First Quarter
Dec 17
Full
Dec 25
Last Quarter
Jan 1
New

Hourly Weather History & Observations

Time (CST) Temp. Windchill Dew Point Humidity Pressure Visibility Wind Dir Wind Speed Gust Speed Precip Events Conditions
12:15 AM -3.1 °F -17.9 °F -8.5 °F 78% 30.36 in 10.0 mi West 8.1 mph - N/A   Scattered Clouds
12:35 AM -3.3 °F -20.3 °F -8.7 °F 78% 30.37 in 10.0 mi West 10.4 mph - N/A   Clear
12:55 AM -3.8 °F -17.5 °F -9.2 °F 78% 30.37 in 10.0 mi West 6.9 mph - N/A   Clear
1:15 AM -4.0 °F -20.2 °F -9.4 °F 78% 30.37 in 10.0 mi West 9.2 mph - N/A   Clear
1:35 AM -4.4 °F -19.5 °F -9.6 °F 78% 30.39 in 10.0 mi West 8.1 mph - N/A   Clear
1:55 AM -4.9 °F -21.3 °F -10.3 °F 78% 30.39 in 10.0 mi West 9.2 mph - N/A   Clear
2:15 AM -5.4 °F -20.8 °F -10.7 °F 78% 30.40 in 10.0 mi West 8.1 mph - N/A   Clear
2:35 AM -6.3 °F -19.1 °F -11.6 °F 78% 30.40 in 10.0 mi West 5.8 mph - N/A   Clear
2:55 AM -8.7 °F -24.7 °F -14.1 °F 77% 30.40 in 10.0 mi WSW 8.1 mph - N/A   Clear
3:15 AM -8.0 °F -21.0 °F -13.2 °F 78% 30.40 in 10.0 mi WSW 5.8 mph - N/A   Clear
3:35 AM -8.3 °F -24.3 °F -13.9 °F 77% 30.40 in 10.0 mi West 8.1 mph - N/A   Clear
3:55 AM -9.2 °F -24.0 °F -15.0 °F 76% 30.41 in 10.0 mi West 6.9 mph - N/A   Clear
4:15 AM -9.8 °F -24.7 °F -15.2 °F 77% 30.41 in 10.0 mi West 6.9 mph - N/A   Clear
4:35 AM -10.3 °F - -15.9 °F 76% 30.42 in 10.0 mi Calm Calm - N/A   Clear
4:55 AM -10.8 °F - -16.4 °F 76% 30.43 in 10.0 mi Calm Calm - N/A   Clear
5:15 AM -11.2 °F -26.4 °F -16.8 °F 76% 30.43 in 10.0 mi West 6.9 mph - N/A   Clear
5:35 AM -11.2 °F -26.4 °F -17.0 °F 76% 30.43 in 10.0 mi West 6.9 mph - N/A   Clear
5:55 AM -11.7 °F -25.5 °F -17.5 °F 76% 30.43 in 10.0 mi West 5.8 mph - N/A   Clear
6:15 AM -12.3 °F - -18.0 °F 76% 30.43 in 10.0 mi Calm Calm - N/A   Clear
6:35 AM -14.6 °F - -20.4 °F 75% 30.44 in 10.0 mi Calm Calm - N/A   Clear
6:55 AM -13.7 °F - -19.1 °F 77% 30.44 in 10.0 mi Calm Calm - N/A   Clear
7:15 AM -15.0 °F - -20.6 °F 76% 30.44 in 10.0 mi Calm Calm - N/A   Clear
7:35 AM -15.5 °F - -21.1 °F 76% 30.44 in 10.0 mi Calm Calm - N/A   Clear
7:55 AM -14.1 °F - -19.7 °F 76% 30.45 in 10.0 mi Calm Calm - N/A   Clear
8:15 AM -14.4 °F -28.7 °F -20.0 °F 76% 30.46 in 10.0 mi WSW 5.8 mph - N/A   Clear
8:35 AM -13.2 °F -27.2 °F -18.9 °F 75% 30.47 in 10.0 mi WSW 5.8 mph - N/A   Clear
8:55 AM -11.4 °F - -17.3 °F 75% 30.47 in 10.0 mi Calm Calm - N/A   Clear
9:15 AM -9.9 °F -19.2 °F -15.9 °F 75% 30.47 in 10.0 mi West 3.5 mph - N/A   Clear
9:35 AM -8.7 °F -20.0 °F -15.2 °F 73% 30.47 in 10.0 mi West 4.6 mph - N/A   Clear
9:55 AM -7.6 °F -20.6 °F -14.1 °F 73% 30.48 in 10.0 mi WSW 5.8 mph - N/A   Clear
10:15 AM -6.0 °F -21.5 °F -13.2 °F 71% 30.49 in 10.0 mi SW 8.1 mph - N/A   Clear
10:35 AM -4.9 °F -18.8 °F -12.1 °F 71% 30.49 in 10.0 mi SW 6.9 mph - N/A   Clear
10:55 AM -4.0 °F -19.0 °F -11.2 °F 71% 30.49 in 10.0 mi WSW 8.1 mph - N/A   Clear
11:15 AM -2.7 °F -16.2 °F -10.3 °F 70% 30.48 in 10.0 mi WSW 6.9 mph - N/A   Clear
11:35 AM -1.8 °F -16.4 °F -9.6 °F 70% 30.47 in 10.0 mi SW 8.1 mph - N/A   Clear
11:55 AM -0.8 °F -12.5 °F -8.7 °F 69% 30.46 in 10.0 mi WSW 5.8 mph - N/A   Clear
12:15 PM 0.1 °F -15.1 °F -7.8 °F 69% 30.46 in 10.0 mi West 9.2 mph - N/A   Clear
12:35 PM 0.5 °F -13.6 °F -7.1 °F 70% 30.45 in 10.0 mi WSW 8.1 mph - N/A   Scattered Clouds
12:55 PM 0.5 °F -15.6 °F -7.1 °F 70% 30.45 in 10.0 mi SW 10.4 mph - N/A   Scattered Clouds
1:15 PM 1.2 °F -12.7 °F -6.2 °F 71% 30.44 in 10.0 mi WSW 8.1 mph - N/A   Mostly Cloudy
1:35 PM 0.9 °F -13.1 °F -6.5 °F 71% 30.44 in 10.0 mi West 8.1 mph - N/A   Mostly Cloudy
1:55 PM 1.4 °F -13.5 °F -6.2 °F 71% 30.44 in 10.0 mi WSW 9.2 mph - N/A   Scattered Clouds
2:15 PM 1.8 °F -14.0 °F -6.5 °F 68% 30.44 in 10.0 mi SW 10.4 mph - N/A   Scattered Clouds
2:35 PM 1.9 °F -11.8 °F -6.7 °F 67% 30.44 in 10.0 mi WSW 8.1 mph - N/A   Clear
2:55 PM 1.6 °F -15.1 °F -7.6 °F 65% 30.44 in 10.0 mi SW 11.5 mph - N/A   Clear
3:15 PM 1.2 °F -14.7 °F -7.8 °F 66% 30.44 in 10.0 mi WSW 10.4 mph - N/A   Clear
3:35 PM 1.0 °F -14.0 °F -8.1 °F 65% 30.43 in 10.0 mi WSW 9.2 mph - N/A   Clear
3:55 PM 0.1 °F -12.8 °F -8.1 °F 68% 30.44 in 10.0 mi WSW 6.9 mph - N/A   Clear
4:15 PM -1.3 °F -15.7 °F -8.5 °F 72% 30.44 in 10.0 mi WSW 8.1 mph - N/A   Clear
4:35 PM -3.1 °F -16.7 °F -9.8 °F 73% 30.44 in 10.0 mi WSW 6.9 mph - N/A   Clear
4:55 PM -2.7 °F -16.2 °F -9.8 °F 72% 30.44 in 10.0 mi WSW 6.9 mph - N/A   Clear
5:15 PM -3.3 °F -18.2 °F -9.9 °F 73% 30.44 in 10.0 mi WSW 8.1 mph - N/A   Clear
5:35 PM -3.8 °F -21.0 °F -10.7 °F 72% 30.44 in 10.0 mi WSW 10.4 mph - N/A   Clear
5:55 PM -4.2 °F -19.3 °F -10.5 °F 74% 30.44 in 10.0 mi SW 8.1 mph - N/A   Clear
6:15 PM -4.7 °F -19.9 °F -11.2 °F 74% 30.45 in 10.0 mi WSW 8.1 mph - N/A   Clear
6:35 PM -5.1 °F -23.5 °F -11.7 °F 73% 30.45 in 10.0 mi WSW 11.5 mph - N/A   Clear
6:55 PM -5.1 °F -23.5 °F -12.1 °F 72% 30.45 in 10.0 mi WSW 11.5 mph - N/A   Clear
7:15 PM -5.4 °F -20.8 °F -12.3 °F 72% 30.45 in 10.0 mi West 8.1 mph - N/A   Clear
7:35 PM -6.0 °F -16.9 °F -12.6 °F 73% 30.45 in 10.0 mi WSW 4.6 mph - N/A   Clear
7:55 PM -7.1 °F -19.9 °F -13.4 °F 74% 30.45 in 10.0 mi WSW 5.8 mph - N/A   Clear
8:15 PM -5.8 °F -19.9 °F -12.3 °F 74% 30.44 in 10.0 mi West 6.9 mph - N/A   Clear
8:35 PM -6.7 °F -19.5 °F -13.0 °F 74% 30.44 in 10.0 mi West 5.8 mph - N/A   Clear
8:55 PM -7.1 °F -19.9 °F -13.4 °F 74% 30.44 in 10.0 mi WSW 5.8 mph - N/A   Clear
9:15 PM -7.4 °F - -13.5 °F 75% 30.44 in 10.0 mi Calm Calm - N/A   Clear
9:35 PM -8.3 °F -19.6 °F -14.3 °F 75% 30.44 in 10.0 mi West 4.6 mph - N/A   Clear
9:55 PM -8.0 °F - -13.9 °F 75% 30.43 in 10.0 mi Calm Calm - N/A   Clear
10:15 PM -8.5 °F - -14.1 °F 77% 30.43 in 10.0 mi Calm Calm - N/A   Clear
10:35 PM -11.4 °F - -16.6 °F 78% 30.43 in 10.0 mi Calm Calm - N/A   Clear
10:55 PM -12.6 °F - -18.2 °F 76% 30.43 in 10.0 mi Calm Calm - N/A   Clear
11:15 PM -11.0 °F - -15.9 °F 79% 30.44 in 10.0 mi Calm Calm - N/A   Clear
11:35 PM -11.9 °F - -17.1 °F 78% 30.44 in 10.0 mi Calm Calm - N/A   Clear
11:55 PM -11.0 °F - -16.2 °F 78% 30.44 in 10.0 mi Calm Calm - N/A   Clear